User: anonymous   Login
Location: Houston
(29.7630°N, 95.3630°W)
Time: 04:07:28
(UTC-06:00)
Language:

Saudisat 1A - Orbit

View from above orbital plane
View from above orbital plane
View from above satellite
View from above satellite

Ground track
Ground track

The orbit data is extracted from the following two-line orbital elements,

1 26546U 00057B   14359.05972458  .00004039  00000-0  44512-3 0  4650
2 26546 064.5577 285.8519 0013335 325.2355 034.7882 14.88811590771807
Epoch (UTC): 25 December 2014 01:26:00
Eccentricity: 0.0013335
inclination: 64.5577°
perigee height: 592 km
apogee height: 611 km
right ascension of ascending node: 285.8519°
argument of perigee: 325.2355°
revolutions per day: 14.88811590
mean anomaly at epoch: 34.7882°
orbit number at epoch: 77180

The dashed part of the orbit path shows where the satellite is in the earth's shadow,  

DLR